View from above orbital plane
|
View from above satellite
|
Ground track
|
The orbit data is extracted from the following two-line orbital elements,
1 28909U 05048B 21026.28967751 .00000031 00000-0 12747-3 0 9999
2 28909 82.4699 127.9080 0006884 225.9604 134.0916 12.55195746691789
Epoch (UTC): | 26 January 2021 06:57:08 |
Eccentricity: | 0.0006884 |
inclination: | 82.4699° |
perigee height: | 1437 km |
apogee height: | 1448 km |
right ascension of ascending node: | 127.9080° |
argument of perigee: | 225.9604° |
revolutions per day: | 12.55195746 |
mean anomaly at epoch: | 134.0916° |
orbit number at epoch: | 69178 |
The dashed part of the orbit path shows where the satellite is in the earth's shadow,
|
|